Previsão horária em Allmen

Hoje, 15 Janeiro, Sexta-feira

Tempo Temperatura Precipitação Vento Pressão Humidade
00:00 -4°C° 1.4 mm 1 m/s 640 mmHg 98%
01:00 -3°C° 0 mm 1 m/s 640 mmHg 98%
02:00 -3°C° 1.8 mm 1 m/s 640 mmHg 98%
03:00 -3°C° 1.8 mm 1 m/s 640 mmHg 98%
04:00 -3°C° 1.8 mm 1 m/s 640 mmHg 98%
05:00 -4°C° 1.3 mm 1 m/s 640 mmHg 98%
06:00 -4°C° 1.3 mm 1 m/s 640 mmHg 98%
07:00 -6°C° 0 mm 2 m/s 640 mmHg 97%
08:00 -6°C° 1.7 mm 1 m/s 641 mmHg 97%
09:00 -6°C° 1.7 mm 1 m/s 641 mmHg 97%
10:00 -6°C° 1.7 mm 1 m/s 641 mmHg 97%
11:00 -6°C° 0.9 mm 1 m/s 641 mmHg 97%
12:00 -6°C° 0.9 mm 1 m/s 642 mmHg 96%
13:00 -7°C° 0.9 mm 2 m/s 642 mmHg 96%
14:00 -7°C° 0.3 mm 2 m/s 642 mmHg 96%
15:00 -7°C° 0.3 mm 2 m/s 642 mmHg 96%
16:00 -8°C° 0.3 mm 2 m/s 642 mmHg 96%
17:00 -8°C° 0.1 mm 1 m/s 643 mmHg 96%
18:00 -8°C° 0.1 mm 1 m/s 643 mmHg 97%
19:00 -9°C° 0.1 mm 1 m/s 644 mmHg 97%
20:00 -10°C° 0 mm 1 m/s 644 mmHg 96%
21:00 -10°C° 0 mm 1 m/s 644 mmHg 96%
22:00 -11°C° 0 mm 0 m/s 644 mmHg 96%
23:00 -12°C° 0 mm 0 m/s 644 mmHg 93%

Amanhã, 16 Janeiro, Sábado

Tempo Temperatura Precipitação Vento Pressão Humidade
00:00 -13°C° 0 mm 1 m/s 644 mmHg 90%
01:00 -14°C° 0 mm 1 m/s 643 mmHg 87%
02:00 -14°C° 0 mm 1 m/s 643 mmHg 86%
03:00 -14°C° 0 mm 1 m/s 643 mmHg 85%
04:00 -15°C° 0 mm 1 m/s 643 mmHg 84%
05:00 -15°C° 0 mm 1 m/s 643 mmHg 83%
06:00 -15°C° 0 mm 1 m/s 643 mmHg 82%
07:00 -15°C° 0 mm 1 m/s 643 mmHg 81%
08:00 -14°C° 0 mm 1 m/s 644 mmHg 81%
09:00 -12°C° 0 mm 1 m/s 644 mmHg 82%
10:00 -11°C° 0 mm 1 m/s 645 mmHg 83%
11:00 -10°C° 0 mm 1 m/s 645 mmHg 83%
12:00 -8°C° 0 mm 0 m/s 645 mmHg 83%
13:00 -7°C° 0 mm 0 m/s 645 mmHg 83%
14:00 -7°C° 0 mm 0 m/s 644 mmHg 86%
15:00 -8°C° 0 mm 0 m/s 644 mmHg 89%
16:00 -9°C° 0 mm 0 m/s 643 mmHg 92%
17:00 -9°C° 0 mm 1 m/s 643 mmHg 89%
18:00 -10°C° 0 mm 1 m/s 643 mmHg 86%
19:00 -11°C° 0 mm 1 m/s 643 mmHg 83%
20:00 -11°C° 0 mm 1 m/s 643 mmHg 81%
21:00 -10°C° 0 mm 1 m/s 643 mmHg 79%
22:00 -10°C° 0 mm 1 m/s 643 mmHg 77%
23:00 -9°C° 0 mm 1 m/s 642 mmHg 78%

Depois de amanhã, 17 Janeiro, Domingo

Tempo Temperatura Precipitação Vento Pressão Humidade
00:00 -9°C° 0 mm 1 m/s 642 mmHg 79%
01:00 -8°C° 0 mm 1 m/s 642 mmHg 81%
02:00 -8°C° 0.6 mm 1 m/s 642 mmHg 86%
03:00 -7°C° 0.6 mm 1 m/s 641 mmHg 90%
04:00 -7°C° 0.6 mm 1 m/s 641 mmHg 95%
05:00 -7°C° 1 mm 2 m/s 641 mmHg 96%
06:00 -6°C° 1 mm 2 m/s 641 mmHg 97%
07:00 -6°C° 1 mm 2 m/s 642 mmHg 98%
08:00 -5°C° 0.4 mm 2 m/s 642 mmHg 98%
09:00 -5°C° 0.4 mm 2 m/s 642 mmHg 97%
10:00 -6°C° 0.4 mm 3 m/s 642 mmHg 97%
11:00 -5°C° 0.7 mm 3 m/s 642 mmHg 98%
12:00 -5°C° 0.7 mm 3 m/s 642 mmHg 98%
13:00 -5°C° 0.7 mm 3 m/s 642 mmHg 99%
14:00 -5°C° 1.4 mm 3 m/s 642 mmHg 98%
15:00 -6°C° 1.4 mm 3 m/s 642 mmHg 98%
16:00 -6°C° 1.4 mm 3 m/s 642 mmHg 98%
17:00 -6°C° 1.5 mm 3 m/s 643 mmHg 98%
18:00 -6°C° 1.5 mm 3 m/s 643 mmHg 98%
19:00 -7°C° 1.5 mm 3 m/s 644 mmHg 97%
20:00 -7°C° 0.4 mm 2 m/s 644 mmHg 97%
21:00 -7°C° 0.4 mm 2 m/s 644 mmHg 97%
22:00 -7°C° 0.4 mm 1 m/s 645 mmHg 97%
23:00 -8°C° 0.1 mm 1 m/s 645 mmHg 96%

18 Janeiro, Segunda-feira

Tempo Temperatura Precipitação Vento Pressão Humidade
00:00 -8°C° 0.1 mm 1 m/s 645 mmHg 96%
01:00 -9°C° 0.1 mm 1 m/s 645 mmHg 95%
02:00 -9°C° 0 mm 1 m/s 645 mmHg 94%
03:00 -10°C° 0 mm 1 m/s 645 mmHg 94%
04:00 -10°C° 0 mm 1 m/s 645 mmHg 93%
05:00 -11°C° 0 mm 1 m/s 645 mmHg 92%
06:00 -11°C° 0 mm 1 m/s 645 mmHg 90%
07:00 -11°C° 0 mm 1 m/s 645 mmHg 89%
08:00 -10°C° 0 mm 1 m/s 645 mmHg 89%
09:00 -9°C° 0 mm 1 m/s 646 mmHg 89%
10:00 -9°C° 0 mm 1 m/s 646 mmHg 88%
11:00 -7°C° 0 mm 1 m/s 647 mmHg 88%
12:00 -6°C° 0 mm 1 m/s 647 mmHg 88%
13:00 -4°C° 0 mm 1 m/s 647 mmHg 87%
14:00 -5°C° 0 mm 0 m/s 647 mmHg 90%
15:00 -6°C° 0 mm 0 m/s 647 mmHg 92%
16:00 -6°C° 0 mm 0 m/s 646 mmHg 94%
17:00 -8°C° 0 mm 0 m/s 646 mmHg 92%
18:00 -9°C° 0 mm 1 m/s 647 mmHg 90%
19:00 -10°C° 0 mm 1 m/s 647 mmHg 89%
20:00 -10°C° 0 mm 1 m/s 647 mmHg 86%
21:00 -11°C° 0 mm 1 m/s 646 mmHg 83%
22:00 -11°C° 0 mm 1 m/s 646 mmHg 81%
23:00 -13°C° 0 mm 2 m/s 646 mmHg 79%

19 Janeiro, Terça-feira

Tempo Temperatura Precipitação Vento Pressão Humidade
00:00 -13°C° 0 mm 2 m/s 646 mmHg 76%
01:00 -14°C° 0 mm 2 m/s 646 mmHg 74%
02:00 -14°C° 0 mm 2 m/s 645 mmHg 73%
03:00 -14°C° 0 mm 2 m/s 645 mmHg 71%
04:00 -14°C° 0 mm 2 m/s 645 mmHg 70%
05:00 -13°C° 0 mm 2 m/s 645 mmHg 68%
06:00 -13°C° 0 mm 2 m/s 645 mmHg 67%
07:00 -13°C° 0 mm 2 m/s 645 mmHg 66%
08:00 -10°C° 0 mm 2 m/s 645 mmHg 68%
09:00 -9°C° 0 mm 2 m/s 645 mmHg 71%
10:00 -6°C° 0 mm 1 m/s 645 mmHg 73%
11:00 -4°C° 0 mm 1 m/s 645 mmHg 78%
12:00 -3°C° 0 mm 1 m/s 645 mmHg 83%
13:00 -1°C° 0 mm 1 m/s 645 mmHg 88%
14:00 -1°C° 0 mm 1 m/s 645 mmHg 86%
15:00 -2°C° 0 mm 1 m/s 645 mmHg 84%
16:00 -2°C° 0 mm 1 m/s 644 mmHg 82%
17:00 -2°C° 0 mm 1 m/s 644 mmHg 79%
18:00 -5°C° 0 mm 2 m/s 644 mmHg 76%
19:00 -6°C° 0 mm 2 m/s 644 mmHg 73%
20:00 -7°C° 0 mm 2 m/s 643 mmHg 72%
21:00 -8°C° 0 mm 2 m/s 643 mmHg 71%
22:00 -10°C° 0 mm 3 m/s 643 mmHg 70%
23:00 -10°C° 0 mm 3 m/s 643 mmHg 70%

20 Janeiro, Quarta-feira

Tempo Temperatura Precipitação Vento Pressão Humidade
00:00 -10°C° 0 mm 3 m/s 642 mmHg 70%
01:00 -12°C° 0 mm 3 m/s 642 mmHg 70%
02:00 -12°C° 0 mm 3 m/s 642 mmHg 71%
03:00 -12°C° 0 mm 3 m/s 642 mmHg 72%
04:00 -12°C° 0 mm 3 m/s 642 mmHg 73%
05:00 -10°C° 0 mm 3 m/s 642 mmHg 74%
06:00 -10°C° 0 mm 3 m/s 642 mmHg 74%
07:00 -10°C° 0 mm 3 m/s 641 mmHg 75%
08:00 -9°C° 0 mm 3 m/s 641 mmHg 78%
09:00 -8°C° 0 mm 3 m/s 641 mmHg 80%
10:00 -8°C° 0 mm 3 m/s 641 mmHg 82%
11:00 -6°C° 0 mm 3 m/s 641 mmHg 84%
12:00 -5°C° 0 mm 3 m/s 641 mmHg 87%
13:00 -4°C° 0 mm 3 m/s 641 mmHg 89%
14:00 -4°C° 0 mm 3 m/s 641 mmHg 88%
15:00 -4°C° 0 mm 3 m/s 640 mmHg 87%
16:00 -4°C° 0 mm 3 m/s 640 mmHg 86%
17:00 -5°C° 0 mm 3 m/s 640 mmHg 85%
18:00 -5°C° 0 mm 3 m/s 639 mmHg 83%
19:00 -7°C° 0 mm 4 m/s 639 mmHg 82%
20:00 -7°C° 0 mm 4 m/s 639 mmHg 82%
21:00 -7°C° 0 mm 4 m/s 639 mmHg 82%
22:00 -7°C° 0 mm 4 m/s 639 mmHg 81%
23:00 -7°C° 0 mm 4 m/s 638 mmHg 82%
Mostrar mais

Necessitamos do seu Consentimento

A Meteoprog e os seus Fornecedores de Serviços podem armazenar e aceder a dados pessoais como cookies, identificadores do dispositivo ou outras tecnologias semelhantes existentes no seu dispositivo e processar estes dados para personalizar conteúdos e anúncios, assim como funcionalidades nas redes sociais e análise de tráfego.

  • Armazenar e/ou aceder a informações no seu dispositivo

    Os cookies, identificadores do dispositivo ou outras informações podem ser armazenados ou acedidos no seu dispositivo, para os fins acima indicados.

  • Anúncios e conteúdos personalizados, medição de anúncios e conteúdos, dados sobre o público-alvo e desenvolvimento de produtos

    Os anúncios e os conteúdos podem ser personalizados com base num perfil. Podem ser adicionados dados adicionais para uma maior personalização dos anúncios e dos conteúdos. A eficácia dos anúncios e dos conteúdos pode ser medida. Podem ser obtidas informações sobre o público que visualizou os anúncios e os conteúdos. Estes dados podem ser usados para desenvolver ou melhorar sistemas, softwares ou a experiência do utilizador.

Ao clicar em "Eu concordo”, permitirá o uso de cookies, identificadores do dispositivo e web beacons mencionados ou outras tecnologias semelhantes. As configurações do navegador do seu dispositivo podem ser alteradas.

Para certos fins, podem ser invocados interesses legítimos ao invés de consentimento. Pode ler mais informação sobre este assunto na nossa Política de Privacidade e Cookies.